Home > Weather > Biel > Past weeks

Flag for Switzerland Past Weather in Biel, Switzerland — Yesterday and Last 2 Weeks

Now
65 °F

Mild.


Feels Like: 65 °F
Forecast: 59 / 76 °F
Wind: 3 mph from Northeast

Location: Grenchen

Current Time: Jul 26, 2016 at 4:38:56 AM

Latest Report: Jul 26, 2016 at 3:00 AM


Visibility: N/A

Pressure: 30.13 "Hg

Humidity: 93%

Dew Point: 62 °F

Location of BielLocation

Past Weather in Biel — Graph

°F

Biel Temperature Yesterday

Maximum temperature yesterday: 80 °F (at 3:00 PM)
Minimum temperature yesterday: 60 °F (at 4:00 AM)
Average temperature yesterday: 71 °F

High & Low Weather Summary for the Past Weeks

 TemperatureHumidityPressure
High91 °F (Jul 20, 6:00 PM)100% (Jul 13, 3:00 AM)30.38 "Hg (Jul 13, 3:00 AM)
Low44 °F (Jul 16, 6:00 AM)31% (Jul 20, 5:00 PM)29.89 "Hg (Jul 20, 6:00 PM)
Average67 °F77%30.09 "Hg
* Reported Jul 11 3:00 AM — Jul 26 3:00 AM, Biel, Weather by CustomWeather, © 2016

Note: Actual official high and low records may vary slightly from our data, if they occured in-between our weather recording intervals... More about our weather records

Advertising

Biel Weather History for the Previous 24 Hours

Scroll right to see more
 ConditionsComfort  
Time TempWeatherWind HumidityBarometerVisibility
3:00 AM
Tue, Jul 26
65 °FMild.3 mph93%30.13 "HgN/A
2:00 AM68 °FMild.1 mph86%30.12 "HgN/A
1:00 AM69 °FMild.5 mph83%30.12 "HgN/A
12:00 AM70 °FMild.1 mph84%30.11 "HgN/A
11:00 PM
Mon, Jul 25
72 °FMild.1 mph77%30.11 "HgN/A
10:00 PM74 °FMild.2 mph69%30.09 "HgN/A
9:00 PM76 °FMild.6 mph60%30.08 "HgN/A
8:00 PM77 °FWarm.5 mph55%30.06 "HgN/A
7:00 PM78 °FWarm.6 mph55%30.05 "HgN/A
6:00 PM79 °FWarm.1 mph55%30.04 "HgN/A
5:00 PM77 °FWarm.7 mph57%30.05 "HgN/A
4:00 PM79 °FWarm.5 mph54%30.05 "HgN/A
3:00 PM80 °FWarm.5 mph50%30.05 "HgN/A
2:00 PM77 °FWarm.6 mph58%30.07 "HgN/A
1:00 PM78 °FWarm.5 mph59%30.06 "HgN/A
12:00 PM76 °FMild.5 mph64%30.08 "HgN/A
11:00 AM74 °FMild.3 mph67%30.09 "HgN/A
10:00 AM71 °FMild.1 mph74%30.11 "HgN/A
9:00 AM68 °FMild.3 mph84%30.12 "HgN/A
8:00 AM64 °FMild.1 mph94%30.13 "HgN/A
7:00 AM63 °FMild.1 mph98%30.13 "HgN/A
6:00 AM61 °FCool.2 mph98%30.13 "HgN/A
5:00 AM63 °FMild.1 mph97%30.12 "HgN/A
4:00 AM60 °FCool.2 mph97%30.14 "HgN/A
Weather by CustomWeather, © 2016

See weather overviewHow to use our weather pages